Total_Precipitation_Accumulation
0.03 0.03 0.08 0.09 0.04 0.00 0.00 0.00 0.00 0.00 0.00 0.00 0.01 0.02 0.04 0.05 0.04 0.05 0.07 0.10 0.08 0.03 0.04 0.05 0.09 0.11 0.18 0.39 0.50 0.59 0.49 0.46 0.17 0.16 0.07 0.04 0.02 0.01 0.01 0.00 0.00 0.00 0.00
0.01 0.01 0.03 0.04 0.04 0.02 0.00 0.00 0.00 0.00 0.00 0.00 0.00 0.00 0.00 0.01 0.01 0.01 0.00 0.01 0.01 0.02 0.01 0.03 0.05 0.09 0.17 0.35 0.54 0.56 0.49 0.47 0.43 0.32 0.18 0.06 0.03 0.02 0.01 0.01 0.00 0.00 0.00
0.01 0.01 0.02 0.01 0.01 0.01 0.00 0.00 0.00 0.00 0.00 0.00 0.00 0.00 0.00 0.00 0.01 0.00 0.00 0.00 0.00 0.01 0.01 0.01 0.02 0.04 0.05 0.16 0.39 0.56 0.52 0.44 0.55 0.36 0.24 0.06 0.02 0.04 0.02 0.01 0.00 0.00 0.00
0.00 0.00 0.00 0.00 0.00 0.00 0.00 0.00 0.00 0.00 0.00 0.00 0.00 0.01 0.01 0.01 0.01 0.00 0.00 0.00 0.00 0.00 0.01 0.01 0.01 0.01 0.02 0.04 0.12 0.20 0.28 0.38 0.40 0.30 0.17 0.08 0.03 0.04 0.03 0.01 0.00 0.00 0.00
0.00 0.00 0.00 0.00 0.00 0.00 0.00 0.00 0.00 0.00 0.00 0.01 0.00 0.01 0.01 0.02 0.01 0.02 0.01 0.00 0.00 0.02 0.04 0.03 0.00 0.00 0.00 0.00 0.02 0.11 0.05 0.02 0.05 0.05 0.03 0.03 0.01 0.01 0.02 0.02 0.01 0.00 0.00
0.00 0.01 0.03 0.01 0.06 0.08 0.12 0.14 0.06 0.12 0.07 0.02 0.01 0.03 0.09 0.14 0.01 0.01 0.01 0.00 0.02 0.02 0.04 0.04 0.01 0.00 0.00 0.00 0.00 0.03 0.04 0.00 0.00 0.01 0.00 0.00 0.01 0.00 0.00 0.01 0.01 0.00 0.00
0.00 0.00 0.06 0.11 0.54 0.67 0.57 0.59 0.48 0.53 0.33 0.11 0.05 0.05 0.08 0.14 0.00 0.00 0.00 0.00 0.00 0.00 0.01 0.05 0.02 0.00 0.00 0.00 0.00 0.00 0.00 0.01 0.00 0.00 0.00 0.00 0.00 0.00 0.00 0.00 0.00 0.00 0.01
0.06 0.05 0.10 0.18 0.44 0.76 0.87 0.94 0.90 1.02 0.66 0.41 0.24 0.13 0.08 0.05 0.04 0.00 0.00 0.00 0.00 0.01 0.00 0.00 0.03 0.05 0.02 0.01 0.00 0.00 0.00 0.00 0.00 0.00 0.01 0.01 0.00 0.00 0.00 0.02 0.03 0.02 0.03
0.18 0.10 0.04 0.14 0.32 0.33 0.40 1.12 1.41 1.05 0.94 0.74 0.57 0.43 0.27 0.22 0.13 0.02 0.00 0.00 0.01 0.01 0.02 0.01 0.00 0.01 0.02 0.00 0.01 0.03 0.01 0.00 0.00 0.00 0.01 0.01 0.00 0.00 0.00 0.00 0.01 0.03 0.06
0.20 0.19 0.25 0.44 0.38 0.24 0.15 0.56 0.85 0.75 1.52 1.48 0.85 0.57 0.41 0.37 0.30 0.12 0.02 0.01 0.04 0.05 0.05 0.03 0.00 0.00 0.00 0.00 0.00 0.03 0.03 0.01 0.00 0.00 0.00 0.00 0.00 0.00 0.00 0.01 0.03 0.02 0.05
0.56 0.89 1.23 1.56 1.24 1.26 0.51 0.23 0.23 1.00 1.17 1.15 0.91 0.95 0.52 0.27 0.17 0.17 0.06 0.00 0.03 0.05 0.04 0.04 0.03 0.00 0.00 0.00 0.00 0.00 0.01 0.03 0.02 0.00 0.00 0.00 0.00 0.01 0.00 0.01 0.06 0.07 0.07
0.63 0.93 1.06 1.44 2.21 2.64 1.36 0.56 0.36 0.37 0.75 0.88 0.97 0.77 0.63 0.35 0.25 0.17 0.13 0.07 0.04 0.02 0.05 0.03 0.02 0.00 0.00 0.00 0.00 0.00 0.00 0.00 0.01 0.01 0.00 0.00 0.00 0.00 0.00 0.00 0.00 0.01 0.05
1.49 1.54 1.62 1.91 1.79 1.55 1.28 0.84 0.38 0.16 0.18 0.29 0.28 0.32 0.46 0.50 0.39 0.28 0.13 0.10 0.06 0.02 0.00 0.01 0.01 0.00 0.00 0.00 0.00 0.00 0.00 0.00 0.00 0.00 0.00 0.00 0.00 0.00 0.00 0.00 0.00 0.00 0.01
2.01 2.19 2.74 2.74 1.71 1.26 1.12 0.86 0.46 0.33 0.22 0.13 0.09 0.14 0.26 0.33 0.31 0.27 0.15 0.11 0.08 0.03 0.02 0.01 0.00 0.00 0.00 0.00 0.00 0.00 0.00 0.00 0.00 0.00 0.00 0.00 0.00 0.00 0.00 0.00 0.00 0.00 0.00
0.75 0.90 0.66 0.33 0.26 0.22 0.24 0.25 0.27 0.29 0.25 0.23 0.25 0.26 0.18 0.24 0.40 0.44 0.31 0.20 0.20 0.20 0.13 0.06 0.04 0.02 0.01 0.01 0.00 0.00 0.00 0.00 0.00 0.00 0.00 0.00 0.00 0.00 0.00 0.00 0.00 0.00 0.00
0.09 0.06 0.05 0.05 0.08 0.12 0.14 0.21 0.30 0.32 0.26 0.17 0.16 0.14 0.18 0.22 0.27 0.30 0.27 0.28 0.29 0.36 0.27 0.17 0.17 0.17 0.13 0.15 0.11 0.07 0.03 0.03 0.03 0.03 0.03 0.06 0.09 0.10 0.08 0.03 0.01 0.00 0.00
0.25 0.25 0.24 0.26 0.30 0.37 0.41 0.31 0.09 0.04 0.03 0.03 0.02 0.03 0.05 0.08 0.12 0.17 0.21 0.26 0.25 0.25 0.14 0.10 0.13 0.17 0.24 0.25 0.24 0.23 0.18 0.17 0.18 0.19 0.23 0.25 0.26 0.20 0.19 0.13 0.15 0.14 0.10
0.38 0.39 0.27 0.19 0.22 0.29 0.28 0.25 0.09 0.02 0.00 0.00 0.01 0.01 0.03 0.05 0.07 0.09 0.17 0.23 0.13 0.09 0.04 0.06 0.09 0.14 0.15 0.14 0.16 0.21 0.23 0.28 0.26 0.21 0.19 0.18 0.16 0.15 0.14 0.15 0.16 0.20 0.22
0.32 0.24 0.25 0.21 0.17 0.19 0.24 0.20 0.09 0.03 0.03 0.03 0.01 0.01 0.01 0.03 0.07 0.11 0.16 0.09 0.11 0.13 0.13 0.14 0.12 0.10 0.12 0.16 0.18 0.21 0.27 0.34 0.37 0.35 0.32 0.31 0.28 0.27 0.22 0.18 0.14 0.11 0.09
0.91 0.79 0.64 0.67 0.63 0.45 0.41 0.30 0.11 0.05 0.08 0.10 0.12 0.08 0.03 0.02 0.02 0.01 0.02 0.03 0.07 0.12 0.15 0.26 0.33 0.35 0.38 0.45 0.51 0.54 0.51 0.44 0.38 0.35 0.30 0.25 0.18 0.12 0.07 0.03 0.01 0.01 0.01
0.21 0.31 0.21 0.16 0.19 0.42 0.50 0.40 0.28 0.21 0.16 0.23 0.39 0.47 0.32 0.06 0.05 0.02 0.00 0.00 0.00 0.01 0.03 0.11 0.12 0.24 0.27 0.29 0.30 0.29 0.26 0.20 0.17 0.15 0.12 0.10 0.09 0.06 0.04 0.05 0.04 0.04 0.04
0.01 0.04 0.09 0.04 0.03 0.08 0.09 0.08 0.08 0.07 0.13 0.17 0.31 0.25 0.11 0.01 0.01 0.01 0.00 0.01 0.01 0.00 0.00 0.00 0.03 0.04 0.02 0.03 0.06 0.07 0.08 0.07 0.07 0.08 0.10 0.10 0.09 0.10 0.09 0.08 0.07 0.06 0.07
0.01 0.02 0.02 0.01 0.03 0.04 0.03 0.06 0.08 0.10 0.13 0.10 0.06 0.03 0.01 0.02 0.03 0.02 0.02 0.02 0.00 0.00 0.00 0.00 0.00 0.00 0.00 0.00 0.00 0.00 0.01 0.02 0.05 0.06 0.07 0.11 0.14 0.15 0.15 0.17 0.19 0.16 0.14
0.01 0.02 0.02 0.03 0.02 0.01 0.03 0.06 0.07 0.04 0.02 0.00 0.01 0.00 0.00 0.00 0.02 0.02 0.01 0.01 0.00 0.00 0.00 0.00 0.00 0.00 0.00 0.00 0.00 0.00 0.00 0.02 0.02 0.03 0.06 0.11 0.15 0.20 0.23 0.28 0.31 0.33 0.34
0.01 0.03 0.05 0.04 0.05 0.06 0.08 0.05 0.02 0.02 0.00 0.00 0.01 0.01 0.00 0.00 0.00 0.01 0.02 0.02 0.01 0.01 0.01 0.02 0.02 0.02 0.01 0.01 0.01 0.01 0.02 0.04 0.03 0.03 0.03 0.06 0.08 0.13 0.20 0.26 0.28 0.33 0.37
0.00 0.01 0.02 0.04 0.06 0.12 0.12 0.07 0.02 0.01 0.00 0.00 0.00 0.00 0.01 0.01 0.01 0.01 0.02 0.02 0.02 0.02 0.02 0.03 0.05 0.08 0.08 0.05 0.05 0.06 0.06 0.06 0.06 0.05 0.04 0.05 0.08 0.11 0.15 0.22 0.26 0.31 0.35